Weather History for Wallops Island, VA

Change the Weather History Date:

Friday, August 9, 2013

  Actual Average Record
Temperature  
Mean Temperature 85 °F 76 °F  
Max Temperature 93 °F 84 °F 94 °F (2011)
Min Temperature 77 °F 68 °F 55 °F (1994)
Degree Days  
Heating Degree Days 0    
Month to date heating degree days 0  
Since 1 June heating degree days 0  
Since 1 July heating degree days 0  
Cooling Degree Days 20    
Month to date cooling degree days 112  
Year to date cooling degree days 1021  
Since 1 June cooling degree days 890  
Growing Degree Days 35 (Base 50)    
Moisture  
Dew Point 71 °F    
Average Humidity 67    
Maximum Humidity 82    
Minimum Humidity 52    
Precipitation  
Precipitation 0.07 in 0.15 in 1.48 in (2005)
Month to date precipitation 0.51 1.39  
Year to date precipitation 28.13 24.59  
Sea Level Pressure  
Sea Level Pressure 29.96 in    
Wind  
Wind Speed 10 mph (WSW)    
Max Wind Speed 22 mph    
Max Gust Speed 27 mph    
Visibility 10 miles    
Events Rain , Thunderstorm    
T = Trace of Precipitation, MM = Missing Value Source: NWS Daily Summary

Daily Weather History Graph

Daily Weather History Graph

Search for Another Location

Airport:

Trip Planner

Search our weather history database for the weather conditions in past years. The results will help you decide how hot, cold, wet, or windy it might be!

Date:

Astronomy

Aug. 09, 2013 Rise Set
Actual Time 6:12 AM EDT 8:01 PM EDT
Civil Twilight 5:43 AM EDT 8:30 PM EDT
Nautical Twilight 5:08 AM EDT 9:04 PM EDT
Astronomical Twilight 4:31 AM EDT 9:41 PM EDT
Moon 8:52 AM EDT (8/9) 9:14 PM EDT (8/9)
Length of Visible Light 14h 46m
Length of Day
13h 49m
Waxing Crescent, 7% of the Moon is Illuminated
Aug 9
Waxing Crescent
Aug 14
First Quarter
Aug 20
Full
Aug 28
Last Quarter
Sep 5
New

Hourly Weather History & Observations

Time (EDT) Temp. Heat Index Dew Point Humidity Pressure Visibility Wind Dir Wind Speed Gust Speed Precip Events Conditions
12:54 AM 77.0 °F - 71.1 °F 82% 30.02 in 10.0 mi SSW 11.5 mph - N/A   Overcast
1:54 AM 77.0 °F - 71.1 °F 82% 30.01 in 10.0 mi SSW 10.4 mph - N/A   Mostly Cloudy
2:54 AM 77.0 °F - 71.1 °F 82% 30.00 in 10.0 mi SSW 11.5 mph - N/A   Overcast
3:27 AM 77.0 °F - 72.0 °F 84% 30.00 in 10.0 mi SSW 10.4 mph - N/A   Overcast
3:54 AM 77.0 °F - 72.0 °F 84% 30.00 in 9.0 mi SSW 8.1 mph - N/A   Overcast
4:17 AM 77.0 °F - 71.1 °F 82% 30.00 in 9.0 mi SSW 9.2 mph - N/A   Mostly Cloudy
4:33 AM 77.0 °F - 72.0 °F 84% 30.00 in 6.0 mi SSW 9.2 mph - N/A   Haze
4:54 AM 77.0 °F - 72.0 °F 84% 29.99 in 5.0 mi SSW 8.1 mph - N/A   Haze
5:19 AM 77.0 °F - 72.0 °F 84% 30.00 in 7.0 mi SSW 8.1 mph - N/A   Overcast
5:54 AM 77.0 °F - 72.0 °F 84% 29.99 in 9.0 mi SW 4.6 mph - N/A   Overcast
6:54 AM 77.0 °F - 71.1 °F 82% 29.99 in 6.0 mi SSW 6.9 mph - N/A   Haze
7:54 AM 80.1 °F 83.8 °F 72.0 °F 76% 29.98 in 10.0 mi SW 9.2 mph - N/A   Clear
8:54 AM 82.9 °F 88.0 °F 72.0 °F 69% 29.97 in 10.0 mi WSW 10.4 mph - N/A   Clear
9:54 AM 87.1 °F 92.8 °F 71.1 °F 59% 29.96 in 10.0 mi West 11.5 mph - N/A   Clear
10:54 AM 88.0 °F 93.8 °F 71.1 °F 57% 29.97 in 10.0 mi West 11.5 mph 21.9 mph N/A   Clear
11:54 AM 89.1 °F 95.0 °F 71.1 °F 55% 29.96 in 10.0 mi WSW 13.8 mph 18.4 mph N/A   Clear
12:54 PM 89.1 °F 94.1 °F 70.0 °F 53% 29.95 in 10.0 mi WSW 15.0 mph - N/A   Clear
1:54 PM 89.1 °F 95.0 °F 71.1 °F 55% 29.94 in 10.0 mi WSW 12.7 mph 21.9 mph N/A   Clear
2:54 PM 91.9 °F 99.5 °F 72.0 °F 52% 29.92 in 10.0 mi WSW 16.1 mph 25.3 mph N/A   Scattered Clouds
3:54 PM 91.9 °F 99.5 °F 72.0 °F 52% 29.91 in 10.0 mi WSW 13.8 mph 21.9 mph N/A   Scattered Clouds
4:54 PM 91.9 °F 99.5 °F 72.0 °F 52% 29.91 in 10.0 mi West 15.0 mph 19.6 mph N/A   Partly Cloudy
5:54 PM 91.0 °F 98.2 °F 72.0 °F 53% 29.89 in 10.0 mi WSW 13.8 mph 21.9 mph N/A   Clear
6:54 PM 90.0 °F 96.9 °F 72.0 °F 55% 29.88 in 10.0 mi WSW 8.1 mph - N/A   Clear
7:54 PM 88.0 °F 94.7 °F 72.0 °F 59% 29.90 in 10.0 mi WSW 9.2 mph - N/A   Clear
8:54 PM 87.1 °F 93.6 °F 72.0 °F 61% 29.92 in 10.0 mi WSW 9.2 mph - N/A   Partly Cloudy
9:40 PM 82.9 °F 85.8 °F 68.0 °F 60% 29.97 in 10.0 mi NNW 13.8 mph 26.5 mph N/A Thunderstorm Overcast
9:47 PM 82.0 °F 85.5 °F 69.1 °F 65% 29.97 in 10.0 mi North 8.1 mph 23.0 mph N/A Thunderstorm Overcast
9:54 PM 80.1 °F 82.9 °F 69.1 °F 69% 29.96 in 10.0 mi North 9.2 mph 18.4 mph N/A Thunderstorm Overcast
10:06 PM 78.1 °F - 70.0 °F 76% 29.97 in 10.0 mi Variable 6.9 mph - 0.00 in Rain , Thunderstorm Light Thunderstorms and Rain
10:54 PM 78.1 °F - 70.0 °F 76% 29.98 in 10.0 mi NNW 8.1 mph - 0.01 in Thunderstorm Thunderstorm
11:13 PM 77.0 °F - 70.0 °F 79% 29.98 in 10.0 mi NW 4.6 mph - 0.02 in Thunderstorm Mostly Cloudy
11:39 PM 77.0 °F - 70.0 °F 79% 29.98 in 10.0 mi WSW 3.5 mph - 0.02 in Thunderstorm Thunderstorm
11:54 PM 77.0 °F - 70.0 °F 79% 29.96 in 10.0 mi SSW 4.6 mph - 0.02 in   Scattered Clouds